HOME
ABOUT US
SERVICES
WEATHER INFORMATION
MEDIA CENTER
CARGO SERVICES
ENTRY PASS
TOURIST INFORMATION
CAREERS
AIRPORT MANAGEMENT TEAM
CONTACT US
 
  SUBMIT
 
 
WEATHER - TAF
The most recent TAF in our system was generated at the source at:

20/10/2014 02:08:39  UTC

TAF OMFJ 202300Z 2100/2206 VRB03KT 5000 HZ NSC TEMPO 2101/2104 SCT018 BECMG 2104/2106 31010KT 8000 TEMPO 2110/2115 07008KT FEW025 BECMG 2115/2117 VRB03KT 6000 TEMPO 2200/2204 4000 HZ FEW018

The information available here could be used for flight planning or other operational purposes. For further information on this aspect, please contact Fujairah International Airport Authority.

For further enquiries, please contact MET Section of Airport at :-
Email : met@fujairah-airport.com
Tel : +971 9 2055507
Fax : +971 9 2223149
Contat Us | Suggestions & Complaints | Links | Location Map | Employee Mail Copyright (c) 2013 Fujairah International Airport | All Rights Reserved.